weather.gov     
National Weather Service

Terminal Aerodrome Forecast
NWS Homepage
This page is being discontinued on March 12, 2014.
The same data is available at this site. Please update your bookmarks.
Thank you, and we apologize for the inconvenience.
Please send an email to SR-SRH.Webmaster@noaa.gov with any concerns.


Current Version
Previous Version:    01  02  03  04  05  06  07  08  09  10  11  12  13  14  15  16  17  18  19  20  21  22  23  
[Printable]
787
FTUS45 KRIW 212300
TAFBPI
TAF
KBPI 212324Z 2200/2224 VRB05KT P6SM SCT200
     FM220900 VRB05KT P6SM VCSH SCT020 OVC035 WS020/26030KT
     FM221400 VRB05KT 5SM -SN SCT015 OVC025 WS020/25045KT
     FM222200 28012KT P6SM -SN SCT025 BKN035=


U.S. Dept. of Commerce
NOAA National Weather Service
1325 East West Highway
Silver Spring, MD 20910
E-mail: w-nws.webmaster@noaa.gov
Page last modified: May 16, 2007
NATIONAL WEATHER SERVICE: for Safety, for Work, for Fun - FOR LIFE